User: anonymous   Login
Location: Cluny
(50.9333°N, 112.8167°W)
Time: 10:55:25
(UTC-07:00)
Language:

Cosmos 1743 Rocket - Orbit

View from above orbital plane
View from above orbital plane
View from above satellite
View from above satellite

Ground track
Ground track

The orbit data is extracted from the following two-line orbital elements,

1 16720U 86034B   16340.85552106  .00000100  00000-0  92494-5 0  9997
2 16720  82.5557  61.7469 0020781  23.5312 112.0118 14.83265175650600
Epoch (UTC): 05 December 2016 20:31:57
Eccentricity: 0.0020781
inclination: 82.5557°
perigee height: 604 km
apogee height: 633 km
right ascension of ascending node: 61.7469°
argument of perigee: 23.5312°
revolutions per day: 14.83265175
mean anomaly at epoch: 112.0118°
orbit number at epoch: 65060

The dashed part of the orbit path shows where the satellite is in the earth's shadow,  

DLR